Weather Service Report


916 
ASUS43 KDTX 212010
RWRMI 
MICHIGAN HOURLY REGIONAL WEATHER ROUNDUP
NATIONAL WEATHER SERVICE DETROIT/PONTIAC MI
400 PM EDT THU AUG 21 2014

NOTE: "FAIR" INDICATES FEW OR NO CLOUDS BELOW 12,000 FEET WITH NO
SIGNIFICANT WEATHER AND/OR OBSTRUCTION TO VISIBILITY.

MIZ047>049-052>055-059>063-066>070-074>076-081>083-212100-
SOUTHEAST LOWER MICHIGAN
  
CITY           SKY/WX    TMP DP  RH WIND       PRES   REMARKS
ADRIAN         PTSUNNY   82  69  64 SW10      29.98S                  
ALMA           CLOUDY    75  66  73 CALM      29.99S                  
ANN ARBOR      PTSUNNY   83  69  62 SW8       29.97S                  
BAD AXE        CLOUDY    74  66  75 NE9       29.99S                  
DETROIT CITY   PTSUNNY   80  68  66 E3        29.96F                  
DETROIT        CLOUDY    80  70  71 CALM      29.97S                  
FLINT          CLOUDY    79  66  64 VRB3      29.98S                  
GROSSE ILE     CLOUDY    79  72  78 S5        29.96S                  
HILLSDALE      PTSUNNY   80  70  70 W7        30.01R                  
HOWELL         PTSUNNY   78  68  70 S3        29.98S                  

CITY           SKY/WX    TMP DP  RH WIND       PRES   REMARKS
JACKSON        PTSUNNY   80  70  71 SW5       29.98S                  
LAMBERTVILLE   CLOUDY    81  70  69 SW6       29.98S                  
LANSING        CLOUDY    79  67  66 CALM      29.98S                  
LAPEER         NOT AVBL                                               
MASON          PTSUNNY   78  69  75 CALM      29.98R                  
MONROE         PTSUNNY   81  70  69 W8        29.95S                  
MT. CLEMENS    PTSUNNY   76  64  65 CALM      29.96F                  
PONTIAC        CLOUDY    78  66  66 SE6       29.97F                  
PORT HOPE        N/A     67  63  87 NE7       29.99F                  
PORT HURON     MOSUNNY   77  66  69 CALM      29.97F                  
TRI CITIES     CLOUDY    77  64  64 CALM      29.99S                  
YPSILANTI      CLOUDY    85  69  58 SW8       29.97S                  
$$
MIZ043>046-050>051-056>058-064>065-071>073-077>080-212100-
SOUTHWEST LOWER MICHIGAN
  
CITY           SKY/WX    TMP DP  RH WIND       PRES   REMARKS
BATTLE CREEK   CLOUDY    81  70  69 SW13      29.99R                  
BENTON HARBOR  CLOUDY    73  70  90 CALM      29.97F                  
BIG RAPIDS     CLOUDY    75  68  77 S7        29.98S                  
COLDWATER      CLOUDY    79  70  73 W6        30.00S                  
HOLLAND        LGT RAIN  74  71  91 W9        30.00F                  
GRAND RAPIDS   CLOUDY    79  73  82 NE8       29.98F                  
KALAMAZOO      CLOUDY    79  69  71 SW10      29.99R                  
MARSHALL       CLOUDY    80  69  70 SW8       29.98R                  
MUSKEGON       LGT RAIN  72  68  87 SW8       29.99F FOG              
$$
MIZ016>042-212100-
NORTHERN LOWER MICHIGAN
  
CITY           SKY/WX    TMP DP  RH WIND       PRES   REMARKS
ALPENA         CLOUDY    71  62  73 VRB5      29.99R                  
BEAVER ISLAND  CLOUDY    69  62  78 CALM      29.99F                  
BELLAIRE       PTSUNNY   74  61  63 CALM      29.97S                  
CADILLAC       CLOUDY    75  64  67 W3        29.99S                  
CHARLEVOIX     CLOUDY    70  63  80 N5        30.01F                  
FRANKFORT      CLOUDY    76  64  65 CALM      29.96S                  
GAYLORD        CLOUDY    72  60  66 VRB3      30.00R                  
GRAYLING       PTSUNNY   74  60  60 CALM      30.00S                  
HARBOR SPRINGS CLOUDY    72  63  73 W3        29.99R                  
HOUGHTON LAKE  CLOUDY    75  59  57 W5        29.99S                  
MANISTEE       CLOUDY    73  63  68 S5        29.98S                  
OSCODA         CLOUDY    69  63  80 E7        29.99S                  
PELLSTON       CLOUDY    73  63  70 NW7       29.99S                  
TRAVERSE CITY  CLOUDY    75  58  55 NE7       29.97S                  
$$
MIZ007>008-015-212100-
EASTERN UPPER MICHIGAN
  
CITY           SKY/WX    TMP DP  RH WIND       PRES   REMARKS
KINROSS        CLOUDY    72  64  78 CALM      29.98S                  
MACKINAC ISLAN CLOUDY    68  63  84 CALM      29.98F                  
NEWBERRY       CLOUDY    72  62  71 S7        29.97S                  
S. S. MARIE    MOSUNNY   75  61  61 CALM      29.97S                  
$$
MIZ004>006-011>014-085-212100-
CENTRAL UPPER MICHIGAN
  
CITY           SKY/WX    TMP DP  RH WIND       PRES   REMARKS
MANISTIQUE     CLOUDY    66  62  87 SE5       29.98F                  
ESCANABA       CLOUDY    66  61  82 SE6       29.98S                  
MENOMINEE      CLOUDY    70  61  73 SE9       29.94F                  
SAWYER-GWINN   CLOUDY    72  61  68 S6        29.97F                  
$$
MIZ001>003-009>011-084-212100-
WESTERN UPPER MICHIGAN
  
CITY           SKY/WX    TMP DP  RH WIND       PRES   REMARKS
IRON MOUNTAIN  CLOUDY    69  63  81 SE12      29.95S                  
HOUGHTON       PTSUNNY   66  60  81 E9        29.95F                  
COPPER HARBOR    N/A     63  59  87 VRB6      29.96S                  
IRONWOOD       CLOUDY    73  66  78 SE7       29.88S                  
$$

ABBREVIATIONS USED IN REMARKS
   TC - TEMPERATURE IN CELSIUS
  WCI - WIND CHILL INDEX
   HX - HEAT INDEX
  VSB - VISIBILITY


Return to Home page


Western Regional Climate Center, wrcc@dri.edu